Tracking 19795 objects as of 20-Jul-2019
HD Live streaming from Space Station
objects crossing your sky now

CZ-4 DEB

Track CZ-4 DEB now!
10-day predictions


NORAD ID: 26220
Int'l Code: 1999-057DJ
Perigee: 607.8 km
Apogee: 712.2 km
Inclination: 98.6 °
Period: 97.8 minutes
Semi major axis: 7030 km
RCS: 2.9061 m2 (large)
Launch date: October 14, 1999
Source: People's Republic of China (PRC)
Launch site: Taiyaun Space Center, China (TSC)

Note: This is SATELLITE DEBRIS
aabbcc
Your satellite tracking list
Your tracking list is empty




NASA's NSSDC Master Catalog

Two Line Element Set (TLE):
1 26220U 99057DJ  19200.80032678 -.00000001 +00000-0 +92540-5 0  9995
2 26220 098.6417 104.6853 0074257 321.6431 078.4721 14.72577046038150
Source of the keplerian elements: AFSPC